Year,Month,Day,Hour,Minute,Value (Times are PST for temperature in C)
2009,05,01,00,00,7.00
2009,05,01,00,01,7.00
2009,05,01,00,02,7.00
2009,05,01,00,03,6.90
2009,05,01,00,04,6.90
2009,05,01,00,05,7.00
2009,05,01,00,06,7.00
2009,05,01,00,07,7.00
2009,05,01,00,08,7.00
2009,05,01,00,09,7.00
2009,05,01,00,10,7.00
2009,05,01,00,11,7.00
2009,05,01,00,12,7.00
2009,05,01,00,13,6.90
2009,05,01,00,14,6.90
2009,05,01,00,15,6.80
2009,05,01,00,16,6.80
2009,05,01,00,17,6.80
2009,05,01,00,18,6.80
2009,05,01,00,19,6.80
2009,05,01,00,20,6.80
2009,05,01,00,21,6.80
2009,05,01,00,22,6.80
2009,05,01,00,23,6.80
2009,05,01,00,24,6.80
2009,05,01,00,25,6.80
2009,05,01,00,26,6.80
2009,05,01,00,27,6.80
2009,05,01,00,28,6.80
2009,05,01,00,29,6.80
2009,05,01,00,30,6.80
2009,05,01,00,31,6.80
2009,05,01,00,32,6.80
2009,05,01,00,33,6.80
2009,05,01,00,34,6.80
2009,05,01,00,35,6.80
2009,05,01,00,36,6.70
2009,05,01,00,37,6.70
2009,05,01,00,38,6.70
2009,05,01,00,39,6.70
2009,05,01,00,40,6.60
2009,05,01,00,41,6.60
2009,05,01,00,42,6.60
2009,05,01,00,43,6.60
2009,05,01,00,44,6.60
2009,05,01,00,45,6.60
2009,05,01,00,46,6.60
2009,05,01,00,47,6.60
2009,05,01,00,48,6.60
2009,05,01,00,49,6.60
2009,05,01,00,50,6.60
2009,05,01,00,51,6.50
2009,05,01,00,52,6.50
2009,05,01,00,53,6.60
2009,05,01,00,54,6.60
2009,05,01,00,55,6.60
2009,05,01,00,56,6.60
2009,05,01,00,57,6.60
2009,05,01,00,58,6.50
2009,05,01,00,59,6.40
2009,05,01,01,00,6.40
2009,05,01,01,01,6.40
2009,05,01,01,02,6.40
2009,05,01,01,03,6.40
2009,05,01,01,04,6.40
2009,05,01,01,05,6.40
2009,05,01,01,06,6.40
2009,05,01,01,07,6.40
2009,05,01,01,08,6.40
2009,05,01,01,09,6.40
2009,05,01,01,10,6.40
2009,05,01,01,11,6.40
2009,05,01,01,12,6.40
2009,05,01,01,13,6.40
2009,05,01,01,14,6.40
2009,05,01,01,15,6.40
2009,05,01,01,16,6.40
2009,05,01,01,17,6.40
2009,05,01,01,18,6.40
2009,05,01,01,19,6.40
2009,05,01,01,20,6.30
2009,05,01,01,21,6.30
2009,05,01,01,22,6.30
2009,05,01,01,23,6.30
2009,05,01,01,24,6.30
2009,05,01,01,25,6.30
2009,05,01,01,26,6.30
2009,05,01,01,27,6.30
2009,05,01,01,28,6.30
2009,05,01,01,29,6.30
2009,05,01,01,30,6.30
2009,05,01,01,31,6.30
2009,05,01,01,32,6.30
2009,05,01,01,33,6.30
2009,05,01,01,34,6.30
2009,05,01,01,35,6.30
2009,05,01,01,36,6.20
2009,05,01,01,37,6.30
2009,05,01,01,38,6.30
2009,05,01,01,39,6.30
2009,05,01,01,40,6.30
2009,05,01,01,41,6.30
2009,05,01,01,42,6.30
2009,05,01,01,43,6.30
2009,05,01,01,44,6.30
2009,05,01,01,45,6.30
2009,05,01,01,46,6.30
2009,05,01,01,47,6.30
2009,05,01,01,48,6.30
2009,05,01,01,49,6.30
2009,05,01,01,50,6.30
2009,05,01,01,51,6.30
2009,05,01,01,52,6.30
2009,05,01,01,53,6.30
2009,05,01,01,54,6.30
2009,05,01,01,55,6.30
2009,05,01,01,56,6.30
2009,05,01,01,57,6.30
2009,05,01,01,58,6.30
2009,05,01,01,59,6.30
2009,05,01,02,00,6.30
2009,05,01,02,01,6.30
2009,05,01,02,02,6.30
2009,05,01,02,03,6.30
2009,05,01,02,04,6.30
2009,05,01,02,05,6.30
2009,05,01,02,06,6.30
2009,05,01,02,07,6.30
2009,05,01,02,08,6.30
2009,05,01,02,09,6.30
2009,05,01,02,10,6.20
2009,05,01,02,11,6.20
2009,05,01,02,12,6.20
2009,05,01,02,13,6.20
2009,05,01,02,14,6.20
2009,05,01,02,15,6.20
2009,05,01,02,16,6.20
2009,05,01,02,17,6.20
2009,05,01,02,18,6.20
2009,05,01,02,19,6.10
2009,05,01,02,20,6.10
2009,05,01,02,21,6.10
2009,05,01,02,22,6.10
2009,05,01,02,23,6.00
2009,05,01,02,24,6.00
2009,05,01,02,25,6.00
2009,05,01,02,26,6.00
2009,05,01,02,27,6.10
2009,05,01,02,28,6.00
2009,05,01,02,29,6.00
2009,05,01,02,30,6.00
2009,05,01,02,31,6.00
2009,05,01,02,32,6.00
2009,05,01,02,33,6.00
2009,05,01,02,34,6.00
2009,05,01,02,35,6.00
2009,05,01,02,36,6.00
2009,05,01,02,37,6.00
2009,05,01,02,38,6.10
2009,05,01,02,39,6.10
2009,05,01,02,40,6.10
2009,05,01,02,41,6.10
2009,05,01,02,42,6.10
2009,05,01,02,43,6.10
2009,05,01,02,44,6.10
2009,05,01,02,45,6.10
2009,05,01,02,46,6.20
2009,05,01,02,47,6.20
2009,05,01,02,48,6.20
2009,05,01,02,49,6.20
2009,05,01,02,50,6.20
2009,05,01,02,51,6.20
2009,05,01,02,52,6.20
2009,05,01,02,53,6.20
2009,05,01,02,54,6.20
2009,05,01,02,55,6.20
2009,05,01,02,56,6.20
2009,05,01,02,57,6.20
2009,05,01,02,58,6.20
2009,05,01,02,59,6.30
2009,05,01,03,00,6.30
2009,05,01,03,01,6.40
2009,05,01,03,02,6.40
2009,05,01,03,03,6.60
2009,05,01,03,04,6.60
2009,05,01,03,05,6.60
2009,05,01,03,06,6.60
2009,05,01,03,07,6.60
2009,05,01,03,08,6.60
2009,05,01,03,09,6.60
2009,05,01,03,10,6.60
2009,05,01,03,11,6.70
2009,05,01,03,12,6.70
2009,05,01,03,13,6.70
2009,05,01,03,14,6.70
2009,05,01,03,15,6.70
2009,05,01,03,16,6.70
2009,05,01,03,17,6.70
2009,05,01,03,18,6.80
2009,05,01,03,19,6.80
2009,05,01,03,20,6.80
2009,05,01,03,21,6.80
2009,05,01,03,22,6.80
2009,05,01,03,23,6.80
2009,05,01,03,24,6.80
2009,05,01,03,25,6.80
2009,05,01,03,26,6.80
2009,05,01,03,27,6.80
2009,05,01,03,28,6.80
2009,05,01,03,29,6.80
2009,05,01,03,30,6.80
2009,05,01,03,31,6.70
2009,05,01,03,32,6.70
2009,05,01,03,33,6.60
2009,05,01,03,34,6.60
2009,05,01,03,35,6.60
2009,05,01,03,36,6.50
2009,05,01,03,37,6.40
2009,05,01,03,38,6.40
2009,05,01,03,39,6.40
2009,05,01,03,40,6.40
2009,05,01,03,41,6.40
2009,05,01,03,42,6.40
2009,05,01,03,43,6.40
2009,05,01,03,44,6.40
2009,05,01,03,45,6.40
2009,05,01,03,46,6.40
2009,05,01,03,47,6.40
2009,05,01,03,48,6.40
2009,05,01,03,49,6.40
2009,05,01,03,50,6.40
2009,05,01,03,51,6.40
2009,05,01,03,52,6.40
2009,05,01,03,53,6.40
2009,05,01,03,54,6.40
2009,05,01,03,55,6.40
2009,05,01,03,56,6.40
2009,05,01,03,57,6.30
2009,05,01,03,58,6.30
2009,05,01,03,59,6.30
2009,05,01,04,00,6.30
2009,05,01,04,01,6.30
2009,05,01,04,02,6.20
2009,05,01,04,03,6.20
2009,05,01,04,04,6.20
2009,05,01,04,05,6.30
2009,05,01,04,06,6.30
2009,05,01,04,07,6.30
2009,05,01,04,08,6.30
2009,05,01,04,09,6.30
2009,05,01,04,10,6.40
2009,05,01,04,11,6.40
2009,05,01,04,12,6.40
2009,05,01,04,13,6.40
2009,05,01,04,14,6.50
2009,05,01,04,15,6.60
2009,05,01,04,16,6.60
2009,05,01,04,17,6.60
2009,05,01,04,18,6.60
2009,05,01,04,19,6.60
2009,05,01,04,20,6.60
2009,05,01,04,21,6.60
2009,05,01,04,22,6.60
2009,05,01,04,23,6.60
2009,05,01,04,24,6.60
2009,05,01,04,25,6.60
2009,05,01,04,26,6.60
2009,05,01,04,27,6.60
2009,05,01,04,28,6.40
2009,05,01,04,29,6.40
2009,05,01,04,30,6.40
2009,05,01,04,31,6.30
2009,05,01,04,32,6.30
2009,05,01,04,33,6.20
2009,05,01,04,34,6.20
2009,05,01,04,35,6.20
2009,05,01,04,36,6.20
2009,05,01,04,37,6.20
2009,05,01,04,38,6.10
2009,05,01,04,39,6.10
2009,05,01,04,40,6.10
2009,05,01,04,41,6.10
2009,05,01,04,42,6.00
2009,05,01,04,43,6.10
2009,05,01,04,44,6.10
2009,05,01,04,45,6.10
2009,05,01,04,46,6.10
2009,05,01,04,47,6.10
2009,05,01,04,48,6.10
2009,05,01,04,49,6.00
2009,05,01,04,50,6.00
2009,05,01,04,51,6.00
2009,05,01,04,52,6.00
2009,05,01,04,53,6.00
2009,05,01,04,54,6.00
2009,05,01,04,55,6.00
2009,05,01,04,56,6.10
2009,05,01,04,57,6.10
2009,05,01,04,58,6.10
2009,05,01,04,59,6.10
2009,05,01,05,00,6.10
2009,05,01,05,01,6.20
2009,05,01,05,02,6.20
2009,05,01,05,03,6.20
2009,05,01,05,04,6.20
2009,05,01,05,05,6.20
2009,05,01,05,06,6.20
2009,05,01,05,07,6.20
2009,05,01,05,08,6.20
2009,05,01,05,09,6.20
2009,05,01,05,10,6.20
2009,05,01,05,11,6.20
2009,05,01,05,12,6.20
2009,05,01,05,13,6.20
2009,05,01,05,14,6.20
2009,05,01,05,15,6.20
2009,05,01,05,16,6.20
2009,05,01,05,17,6.20
2009,05,01,05,18,6.20
2009,05,01,05,19,6.20
2009,05,01,05,20,6.20
2009,05,01,05,21,6.20
2009,05,01,05,22,6.20
2009,05,01,05,23,6.20
2009,05,01,05,24,6.20
2009,05,01,05,25,6.20
2009,05,01,05,26,6.10
2009,05,01,05,27,6.10
2009,05,01,05,28,6.10
2009,05,01,05,29,6.00
2009,05,01,05,30,6.00
2009,05,01,05,31,6.00
2009,05,01,05,32,6.00
2009,05,01,05,33,6.00
2009,05,01,05,34,6.00
2009,05,01,05,35,6.00
2009,05,01,05,36,6.10
2009,05,01,05,37,6.10
2009,05,01,05,38,6.10
2009,05,01,05,39,6.10
2009,05,01,05,40,6.10
2009,05,01,05,41,6.10
2009,05,01,05,42,6.00
2009,05,01,05,43,6.00
2009,05,01,05,44,6.00
2009,05,01,05,45,6.00
2009,05,01,05,46,6.00
2009,05,01,05,47,6.00
2009,05,01,05,48,6.00
2009,05,01,05,49,6.10
2009,05,01,05,50,6.00
2009,05,01,05,51,6.00
2009,05,01,05,52,6.00
2009,05,01,05,53,6.00
2009,05,01,05,54,6.00
2009,05,01,05,55,6.00
2009,05,01,05,56,6.00
2009,05,01,05,57,6.00
2009,05,01,05,58,6.00
2009,05,01,05,59,6.00
2009,05,01,06,00,6.00
2009,05,01,06,01,6.10
2009,05,01,06,02,6.10
2009,05,01,06,03,6.10
2009,05,01,06,04,6.20
2009,05,01,06,05,6.20
2009,05,01,06,06,6.20
2009,05,01,06,07,6.20
2009,05,01,06,08,6.20
2009,05,01,06,09,6.20
2009,05,01,06,10,6.30
2009,05,01,06,11,6.30
2009,05,01,06,12,6.30
2009,05,01,06,13,6.30
2009,05,01,06,14,6.40
2009,05,01,06,15,6.40
2009,05,01,06,16,6.40
2009,05,01,06,17,6.40
2009,05,01,06,18,6.50
2009,05,01,06,19,6.60
2009,05,01,06,20,6.60
2009,05,01,06,21,6.60
2009,05,01,06,22,6.60
2009,05,01,06,23,6.60
2009,05,01,06,24,6.60
2009,05,01,06,25,6.60
2009,05,01,06,26,6.60
2009,05,01,06,27,6.70
2009,05,01,06,28,6.70
2009,05,01,06,29,6.70
2009,05,01,06,30,6.70
2009,05,01,06,31,6.80
2009,05,01,06,32,6.80
2009,05,01,06,33,6.80
2009,05,01,06,34,6.80
2009,05,01,06,35,6.80
2009,05,01,06,36,6.80
2009,05,01,06,37,6.90
2009,05,01,06,38,6.90
2009,05,01,06,39,6.90
2009,05,01,06,40,7.00
2009,05,01,06,41,7.10
2009,05,01,06,42,7.10
2009,05,01,06,43,7.20
2009,05,01,06,44,7.30
2009,05,01,06,45,7.30
2009,05,01,06,46,7.40
2009,05,01,06,47,7.40
2009,05,01,06,48,7.50
2009,05,01,06,49,7.50
2009,05,01,06,50,7.60
2009,05,01,06,51,7.60
2009,05,01,06,52,7.60
2009,05,01,06,53,7.70
2009,05,01,06,54,7.70
2009,05,01,06,55,7.70
2009,05,01,06,56,7.80
2009,05,01,06,57,7.80
2009,05,01,06,58,7.80
2009,05,01,06,59,7.80
2009,05,01,07,00,7.80
2009,05,01,07,01,7.90
2009,05,01,07,02,7.90
2009,05,01,07,03,7.90
2009,05,01,07,04,8.00
2009,05,01,07,05,8.00
2009,05,01,07,06,8.00
2009,05,01,07,07,8.00
2009,05,01,07,08,8.10
2009,05,01,07,09,8.10
2009,05,01,07,10,8.10
2009,05,01,07,11,8.10
2009,05,01,07,12,8.20
2009,05,01,07,13,8.20
2009,05,01,07,14,8.20
2009,05,01,07,15,8.20
2009,05,01,07,16,8.30
2009,05,01,07,17,8.40
2009,05,01,07,18,8.40
2009,05,01,07,19,8.50
2009,05,01,07,20,8.50
2009,05,01,07,21,8.60
2009,05,01,07,22,8.70
2009,05,01,07,23,8.70
2009,05,01,07,24,8.80
2009,05,01,07,25,8.90
2009,05,01,07,26,8.90
2009,05,01,07,27,9.00
2009,05,01,07,28,9.00
2009,05,01,07,29,9.10
2009,05,01,07,30,9.10
2009,05,01,07,31,9.20
2009,05,01,07,32,9.20
2009,05,01,07,33,9.20
2009,05,01,07,34,9.30
2009,05,01,07,35,9.30
2009,05,01,07,36,9.30
2009,05,01,07,37,9.30
2009,05,01,07,38,9.40
2009,05,01,07,39,9.40
2009,05,01,07,40,9.40
2009,05,01,07,41,9.40
2009,05,01,07,42,9.50
2009,05,01,07,43,9.50
2009,05,01,07,44,9.50
2009,05,01,07,45,9.50
2009,05,01,07,46,9.60
2009,05,01,07,47,9.60
2009,05,01,07,48,9.60
2009,05,01,07,49,9.60
2009,05,01,07,50,9.60
2009,05,01,07,51,9.60
2009,05,01,07,52,9.70
2009,05,01,07,53,9.70
2009,05,01,07,54,9.70
2009,05,01,07,55,9.70
2009,05,01,07,56,9.70
2009,05,01,07,57,9.70
2009,05,01,07,58,9.70
2009,05,01,07,59,9.70
2009,05,01,08,00,9.80
2009,05,01,08,01,9.80
2009,05,01,08,02,9.80
2009,05,01,08,03,9.90
2009,05,01,08,04,9.90
2009,05,01,08,05,9.90
2009,05,01,08,06,9.90
2009,05,01,08,07,9.90
2009,05,01,08,08,10.00
2009,05,01,08,09,10.10
2009,05,01,08,10,10.10
2009,05,01,08,11,10.10
2009,05,01,08,12,10.10
2009,05,01,08,13,10.20
2009,05,01,08,14,10.20
2009,05,01,08,15,10.20
2009,05,01,08,16,10.20
2009,05,01,08,17,10.30
2009,05,01,08,18,10.30
2009,05,01,08,19,10.30
2009,05,01,08,20,10.30
2009,05,01,08,21,10.40
2009,05,01,08,22,10.40
2009,05,01,08,23,10.40
2009,05,01,08,24,10.40
2009,05,01,08,25,10.40
2009,05,01,08,26,10.40
2009,05,01,08,27,10.40
2009,05,01,08,28,10.40
2009,05,01,08,29,10.40
2009,05,01,08,30,10.40
2009,05,01,08,31,10.40
2009,05,01,08,32,10.40
2009,05,01,08,33,10.40
2009,05,01,08,34,10.40
2009,05,01,08,35,10.40
2009,05,01,08,36,10.40
2009,05,01,08,37,10.40
2009,05,01,08,38,10.40
2009,05,01,08,39,10.50
2009,05,01,08,40,10.60
2009,05,01,08,41,10.60
2009,05,01,08,42,10.60
2009,05,01,08,43,10.60
2009,05,01,08,44,10.60
2009,05,01,08,45,10.60
2009,05,01,08,46,10.70
2009,05,01,08,47,10.70
2009,05,01,08,48,10.80
2009,05,01,08,49,10.80
2009,05,01,08,50,10.80
2009,05,01,08,51,10.80
2009,05,01,08,52,10.90
2009,05,01,08,53,10.90
2009,05,01,08,54,10.90
2009,05,01,08,55,10.90
2009,05,01,08,56,10.90
2009,05,01,08,57,10.90
2009,05,01,08,58,10.90
2009,05,01,08,59,11.00
2009,05,01,09,00,11.10
2009,05,01,09,01,11.10
2009,05,01,09,02,11.10
2009,05,01,09,03,11.10
2009,05,01,09,04,11.10
2009,05,01,09,05,11.10
2009,05,01,09,06,11.20
2009,05,01,09,07,11.20
2009,05,01,09,08,11.20
2009,05,01,09,09,11.20
2009,05,01,09,10,11.10
2009,05,01,09,11,11.10
2009,05,01,09,12,11.10
2009,05,01,09,13,11.20
2009,05,01,09,14,11.20
2009,05,01,09,15,11.30
2009,05,01,09,16,11.30
2009,05,01,09,17,11.30
2009,05,01,09,18,11.30
2009,05,01,09,19,11.40
2009,05,01,09,20,11.40
2009,05,01,09,21,11.40
2009,05,01,09,22,11.30
2009,05,01,09,23,11.30
2009,05,01,09,24,11.40
2009,05,01,09,25,11.40
2009,05,01,09,26,11.40
2009,05,01,09,27,11.40
2009,05,01,09,28,11.60
2009,05,01,09,29,11.60
2009,05,01,09,30,11.60
2009,05,01,09,31,11.70
2009,05,01,09,32,11.70
2009,05,01,09,33,11.60
2009,05,01,09,34,11.60
2009,05,01,09,35,11.70
2009,05,01,09,36,11.70
2009,05,01,09,37,11.70
2009,05,01,09,38,11.70
2009,05,01,09,39,11.70
2009,05,01,09,40,11.70
2009,05,01,09,41,11.70
2009,05,01,09,42,11.80
2009,05,01,09,43,11.80
2009,05,01,09,44,11.80
2009,05,01,09,45,11.80
2009,05,01,09,46,11.90
2009,05,01,09,47,11.90
2009,05,01,09,48,11.90
2009,05,01,09,49,11.90
2009,05,01,09,50,12.00
2009,05,01,09,51,12.00
2009,05,01,09,52,12.00
2009,05,01,09,53,12.00
2009,05,01,09,54,12.00
2009,05,01,09,55,12.10
2009,05,01,09,56,12.10
2009,05,01,09,57,12.10
2009,05,01,09,58,12.20
2009,05,01,09,59,12.20
2009,05,01,10,00,12.30
2009,05,01,10,01,12.30
2009,05,01,10,02,12.30
2009,05,01,10,03,12.30
2009,05,01,10,04,12.20
2009,05,01,10,05,12.20
2009,05,01,10,06,12.20
2009,05,01,10,07,12.30
2009,05,01,10,08,12.30
2009,05,01,10,09,12.30
2009,05,01,10,10,12.30
2009,05,01,10,11,12.30
2009,05,01,10,12,12.30
2009,05,01,10,13,12.40
2009,05,01,10,14,12.40
2009,05,01,10,15,12.40
2009,05,01,10,16,12.50
2009,05,01,10,17,12.50
2009,05,01,10,18,12.50
2009,05,01,10,19,12.50
2009,05,01,10,20,12.60
2009,05,01,10,21,12.60
2009,05,01,10,22,12.60
2009,05,01,10,23,12.60
2009,05,01,10,24,12.60
2009,05,01,10,25,12.60
2009,05,01,10,26,12.60
2009,05,01,10,27,12.70
2009,05,01,10,28,12.60
2009,05,01,10,29,12.60
2009,05,01,10,30,12.60
2009,05,01,10,31,12.70
2009,05,01,10,32,12.70
2009,05,01,10,33,12.80
2009,05,01,10,34,12.80
2009,05,01,10,35,12.90
2009,05,01,10,36,12.90
2009,05,01,10,37,12.80
2009,05,01,10,38,12.80
2009,05,01,10,39,12.80
2009,05,01,10,40,12.80
2009,05,01,10,41,12.80
2009,05,01,10,42,12.90
2009,05,01,10,43,12.90
2009,05,01,10,44,12.90
2009,05,01,10,45,13.10
2009,05,01,10,46,13.20
2009,05,01,10,47,13.30
2009,05,01,10,48,13.30
2009,05,01,10,49,13.20
2009,05,01,10,50,13.30
2009,05,01,10,51,13.30
2009,05,01,10,52,13.30
2009,05,01,10,53,13.30
2009,05,01,10,54,13.30
2009,05,01,10,55,13.40
2009,05,01,10,56,13.40
2009,05,01,10,57,13.30
2009,05,01,10,58,13.30
2009,05,01,10,59,13.30
2009,05,01,11,00,13.30
2009,05,01,11,01,13.40
2009,05,01,11,02,13.40
2009,05,01,11,03,13.40
2009,05,01,11,04,13.40
2009,05,01,11,05,13.30
2009,05,01,11,06,13.40
2009,05,01,11,07,13.40
2009,05,01,11,08,13.40
2009,05,01,11,09,13.40
2009,05,01,11,10,13.50
2009,05,01,11,11,13.50
2009,05,01,11,12,13.50
2009,05,01,11,13,13.60
2009,05,01,11,14,13.70
2009,05,01,11,15,13.80
2009,05,01,11,16,13.80
2009,05,01,11,17,13.90
2009,05,01,11,18,13.90
2009,05,01,11,19,14.00
2009,05,01,11,20,14.00
2009,05,01,11,21,14.00
2009,05,01,11,22,14.00
2009,05,01,11,23,14.00
2009,05,01,11,24,14.00
2009,05,01,11,25,14.00
2009,05,01,11,26,14.00
2009,05,01,11,27,14.10
2009,05,01,11,28,14.00
2009,05,01,11,29,14.00
2009,05,01,11,30,14.10
2009,05,01,11,31,14.10
2009,05,01,11,32,14.20
2009,05,01,11,33,14.20
2009,05,01,11,34,14.20
2009,05,01,11,35,14.30
2009,05,01,11,36,14.40
2009,05,01,11,37,14.40
2009,05,01,11,38,14.30
2009,05,01,11,39,14.30
2009,05,01,11,40,14.30
2009,05,01,11,41,14.40
2009,05,01,11,42,14.50
2009,05,01,11,43,14.50
2009,05,01,11,44,14.50
2009,05,01,11,45,14.60
2009,05,01,11,46,14.50
2009,05,01,11,47,14.40
2009,05,01,11,48,14.30
2009,05,01,11,49,14.20
2009,05,01,11,50,14.20
2009,05,01,11,51,14.20
2009,05,01,11,52,14.20
2009,05,01,11,53,14.20
2009,05,01,11,54,14.20
2009,05,01,11,55,14.20
2009,05,01,11,56,14.20
2009,05,01,11,57,14.20
2009,05,01,11,58,14.20
2009,05,01,11,59,14.20
2009,05,01,12,00,14.40
2009,05,01,12,01,14.50
2009,05,01,12,02,14.60
2009,05,01,12,03,14.60
2009,05,01,12,04,14.60
2009,05,01,12,05,14.60
2009,05,01,12,06,14.70
2009,05,01,12,07,14.70
2009,05,01,12,08,14.70
2009,05,01,12,09,14.70
2009,05,01,12,10,14.60
2009,05,01,12,11,14.60
2009,05,01,12,12,14.60
2009,05,01,12,13,14.50
2009,05,01,12,14,14.50
2009,05,01,12,15,14.60
2009,05,01,12,16,14.60
2009,05,01,12,17,14.70
2009,05,01,12,18,14.80
2009,05,01,12,19,14.80
2009,05,01,12,20,14.70
2009,05,01,12,21,14.70
2009,05,01,12,22,14.70
2009,05,01,12,23,14.80
2009,05,01,12,24,14.80
2009,05,01,12,25,14.70
2009,05,01,12,26,14.70
2009,05,01,12,27,14.70
2009,05,01,12,28,14.80
2009,05,01,12,29,14.80
2009,05,01,12,30,14.80
2009,05,01,12,31,15.00
2009,05,01,12,32,15.00
2009,05,01,12,33,15.10
2009,05,01,12,34,15.20
2009,05,01,12,35,15.20
2009,05,01,12,36,15.30
2009,05,01,12,37,15.30
2009,05,01,12,38,15.30
2009,05,01,12,39,15.30
2009,05,01,12,40,15.30
2009,05,01,12,41,15.30
2009,05,01,12,42,15.30
2009,05,01,12,43,15.30
2009,05,01,12,44,15.30
2009,05,01,12,45,15.30
2009,05,01,12,46,15.30
2009,05,01,12,47,15.20
2009,05,01,12,48,15.20
2009,05,01,12,49,15.20
2009,05,01,12,50,15.20
2009,05,01,12,51,15.20
2009,05,01,12,52,15.20
2009,05,01,12,53,15.20
2009,05,01,12,54,15.20
2009,05,01,12,55,15.20
2009,05,01,12,56,15.20
2009,05,01,12,57,15.30
2009,05,01,12,58,15.30
2009,05,01,12,59,15.30
2009,05,01,13,00,15.30
2009,05,01,13,01,15.40
2009,05,01,13,02,15.40
2009,05,01,13,03,15.40
2009,05,01,13,04,15.40
2009,05,01,13,05,15.40
2009,05,01,13,06,15.50
2009,05,01,13,07,15.50
2009,05,01,13,08,15.50
2009,05,01,13,09,15.60
2009,05,01,13,10,15.60
2009,05,01,13,11,15.60
2009,05,01,13,12,15.70
2009,05,01,13,13,15.70
2009,05,01,13,14,15.80
2009,05,01,13,15,15.80
2009,05,01,13,16,15.80
2009,05,01,13,17,15.80
2009,05,01,13,18,15.80
2009,05,01,13,19,15.90
2009,05,01,13,20,15.90
2009,05,01,13,21,15.90
2009,05,01,13,22,15.80
2009,05,01,13,23,15.90
2009,05,01,13,24,15.90
2009,05,01,13,25,15.90
2009,05,01,13,26,16.00
2009,05,01,13,27,16.10
2009,05,01,13,28,16.20
2009,05,01,13,29,16.20
2009,05,01,13,30,16.20
2009,05,01,13,31,16.20
2009,05,01,13,32,16.20
2009,05,01,13,33,16.20
2009,05,01,13,34,16.20
2009,05,01,13,35,16.20
2009,05,01,13,36,16.10
2009,05,01,13,37,16.10
2009,05,01,13,38,16.10
2009,05,01,13,39,16.20
2009,05,01,13,40,16.20
2009,05,01,13,41,16.30
2009,05,01,13,42,16.30
2009,05,01,13,43,16.30
2009,05,01,13,44,16.30
2009,05,01,13,45,16.30
2009,05,01,13,46,16.30
2009,05,01,13,47,16.40
2009,05,01,13,48,16.40
2009,05,01,13,49,16.40
2009,05,01,13,50,16.40
2009,05,01,13,51,16.40
2009,05,01,13,52,16.40
2009,05,01,13,53,16.40
2009,05,01,13,54,16.40
2009,05,01,13,55,16.40
2009,05,01,13,56,16.40
2009,05,01,13,57,16.40
2009,05,01,13,58,16.50
2009,05,01,13,59,16.70
2009,05,01,14,00,16.70
2009,05,01,14,01,16.70
2009,05,01,14,02,16.70
2009,05,01,14,03,16.70
2009,05,01,14,04,16.70
2009,05,01,14,05,16.70
2009,05,01,14,06,16.70
2009,05,01,14,07,16.80
2009,05,01,14,08,16.80
2009,05,01,14,09,16.90
2009,05,01,14,10,16.90
2009,05,01,14,11,17.00
2009,05,01,14,12,17.00
2009,05,01,14,13,17.00
2009,05,01,14,14,17.00
2009,05,01,14,15,17.00
2009,05,01,14,16,17.00
2009,05,01,14,17,17.10
2009,05,01,14,18,17.20
2009,05,01,14,19,17.30
2009,05,01,14,20,17.30
2009,05,01,14,21,17.30
2009,05,01,14,22,17.30
2009,05,01,14,23,17.30
2009,05,01,14,24,17.30
2009,05,01,14,25,17.30
2009,05,01,14,26,17.20
2009,05,01,14,27,17.30
2009,05,01,14,28,17.30
2009,05,01,14,29,17.30
2009,05,01,14,30,17.30
2009,05,01,14,31,17.30
2009,05,01,14,32,17.50
2009,05,01,14,33,17.50
2009,05,01,14,34,17.60
2009,05,01,14,35,17.60
2009,05,01,14,36,17.60
2009,05,01,14,37,17.60
2009,05,01,14,38,17.60
2009,05,01,14,39,17.60
2009,05,01,14,40,17.60
2009,05,01,14,41,17.70
2009,05,01,14,42,17.70
2009,05,01,14,43,17.70
2009,05,01,14,44,17.80
2009,05,01,14,45,17.80
2009,05,01,14,46,17.80
2009,05,01,14,47,17.80
2009,05,01,14,48,17.70
2009,05,01,14,49,17.70
2009,05,01,14,50,17.70
2009,05,01,14,51,17.70
2009,05,01,14,52,17.70
2009,05,01,14,53,17.80
2009,05,01,14,54,17.80
2009,05,01,14,55,17.80
2009,05,01,14,56,17.80
2009,05,01,14,57,17.80
2009,05,01,14,58,17.80
2009,05,01,14,59,17.80
2009,05,01,15,00,17.90
2009,05,01,15,01,17.90
2009,05,01,15,02,17.90
2009,05,01,15,03,17.90
2009,05,01,15,04,18.00
2009,05,01,15,05,18.10
2009,05,01,15,06,18.20
2009,05,01,15,07,18.20
2009,05,01,15,08,18.20
2009,05,01,15,09,18.20
2009,05,01,15,10,18.20
2009,05,01,15,11,18.30
2009,05,01,15,12,18.30
2009,05,01,15,13,18.50
2009,05,01,15,14,18.60
2009,05,01,15,15,18.60
2009,05,01,15,16,18.70
2009,05,01,15,17,18.80
2009,05,01,15,18,18.80
2009,05,01,15,19,18.80
2009,05,01,15,20,18.70
2009,05,01,15,21,18.70
2009,05,01,15,22,18.70
2009,05,01,15,23,18.70
2009,05,01,15,24,18.70
2009,05,01,15,25,18.70
2009,05,01,15,26,18.70
2009,05,01,15,27,18.70
2009,05,01,15,28,18.80
2009,05,01,15,29,18.80
2009,05,01,15,30,18.90
2009,05,01,15,31,18.90
2009,05,01,15,32,18.90
2009,05,01,15,33,19.10
2009,05,01,15,34,19.00
2009,05,01,15,35,18.90
2009,05,01,15,36,18.90
2009,05,01,15,37,18.90
2009,05,01,15,38,19.00
2009,05,01,15,39,19.00
2009,05,01,15,40,18.90
2009,05,01,15,41,19.00
2009,05,01,15,42,19.10
2009,05,01,15,43,19.10
2009,05,01,15,44,19.20
2009,05,01,15,45,19.30
2009,05,01,15,46,19.30
2009,05,01,15,47,19.30
2009,05,01,15,48,19.30
2009,05,01,15,49,19.40
2009,05,01,15,50,19.40
2009,05,01,15,51,19.50
2009,05,01,15,52,19.50
2009,05,01,15,53,19.50
2009,05,01,15,54,19.60
2009,05,01,15,55,19.50
2009,05,01,15,56,19.50
2009,05,01,15,57,19.40
2009,05,01,15,58,19.40
2009,05,01,15,59,19.30
2009,05,01,16,00,19.30
2009,05,01,16,01,19.40
2009,05,01,16,02,19.50
2009,05,01,16,03,19.50
2009,05,01,16,04,19.60
2009,05,01,16,05,19.70
2009,05,01,16,06,19.70
2009,05,01,16,07,19.80
2009,05,01,16,08,19.90
2009,05,01,16,09,19.90
2009,05,01,16,10,20.00
2009,05,01,16,11,20.10
2009,05,01,16,12,20.00
2009,05,01,16,13,19.90
2009,05,01,16,14,19.90
2009,05,01,16,15,19.80
2009,05,01,16,16,19.80
2009,05,01,16,17,19.80
2009,05,01,16,18,19.80
2009,05,01,16,19,19.90
2009,05,01,16,20,20.00
2009,05,01,16,21,20.00
2009,05,01,16,22,19.90
2009,05,01,16,23,19.90
2009,05,01,16,24,19.90
2009,05,01,16,25,19.90
2009,05,01,16,26,19.90
2009,05,01,16,27,20.00
2009,05,01,16,28,20.10
2009,05,01,16,29,20.00
2009,05,01,16,30,20.10
2009,05,01,16,31,20.10
2009,05,01,16,32,20.10
2009,05,01,16,33,20.20
2009,05,01,16,34,20.20
2009,05,01,16,35,20.20
2009,05,01,16,36,20.20
2009,05,01,16,37,20.20
2009,05,01,16,38,20.10
2009,05,01,16,39,20.10
2009,05,01,16,40,20.10
2009,05,01,16,41,20.10
2009,05,01,16,42,20.10
2009,05,01,16,43,20.10
2009,05,01,16,44,20.10
2009,05,01,16,45,20.10
2009,05,01,16,46,20.20
2009,05,01,16,47,20.20
2009,05,01,16,48,20.30
2009,05,01,16,49,20.40
2009,05,01,16,50,20.50
2009,05,01,16,51,20.50
2009,05,01,16,52,20.50
2009,05,01,16,53,20.50
2009,05,01,16,54,20.50
2009,05,01,16,55,20.50
2009,05,01,16,56,20.40
2009,05,01,16,57,20.30
2009,05,01,16,58,20.30
2009,05,01,16,59,20.20
2009,05,01,17,00,20.20
2009,05,01,17,01,20.20
2009,05,01,17,02,20.10
2009,05,01,17,03,20.10
2009,05,01,17,04,20.10
2009,05,01,17,05,20.10
2009,05,01,17,06,20.10
2009,05,01,17,07,20.10
2009,05,01,17,08,20.20
2009,05,01,17,09,20.20
2009,05,01,17,10,20.20
2009,05,01,17,11,20.20
2009,05,01,17,12,20.20
2009,05,01,17,13,20.20
2009,05,01,17,14,20.10
2009,05,01,17,15,20.10
2009,05,01,17,16,20.10
2009,05,01,17,17,20.00
2009,05,01,17,18,19.90
2009,05,01,17,19,19.90
2009,05,01,17,20,19.90
2009,05,01,17,21,19.90
2009,05,01,17,22,19.90
2009,05,01,17,23,19.90
2009,05,01,17,24,20.00
2009,05,01,17,25,20.10
2009,05,01,17,26,20.10
2009,05,01,17,27,20.10
2009,05,01,17,28,20.10
2009,05,01,17,29,20.20
2009,05,01,17,30,20.20
2009,05,01,17,31,20.20
2009,05,01,17,32,20.20
2009,05,01,17,33,20.20
2009,05,01,17,34,20.20
2009,05,01,17,35,20.20
2009,05,01,17,36,20.20
2009,05,01,17,37,20.20
2009,05,01,17,38,20.30
2009,05,01,17,39,20.20
2009,05,01,17,40,20.20